Location: Boiro
(42.6475°N, 8.8834°W)
Time: 02:57:21
(UTC+01:00)

Vanguard 3 - Pass Details

Date: 04 December 2021
Orbit: 508 x 3260 km, 33.3° (Epoch: 19 January)

Event Time Altitude Azimuth Distance (km) Brightness Sun altitude
Exits shadow 07:26:47 - 257° (WSW) 6,529 11.2 -14.7°
Reaches altitude 10° 07:28:24 10° 256° (WSW) 6,193 11.1 -14.4°
Maximum altitude 07:47:20 61° 183° (S) 2,984 10.1 -11.1°
Drops below altitude 10° 08:00:05 10° 107° (ESE) 4,354 12.5 -8.9°
Sets 08:02:55 0° 104° (ESE) 5,039 13.4 -8.4°
